Regional Weather Roundup
Issued by NWS

Home | Current Version | Previous Version | Graphics & Text | Print | Product List | Glossary On
Versions: 1 2 3 4 5 6 7 8 9 10 11 12 13 14 15 16 17 18 19 20 21 22 23 24 25 26 27 28 29 30 31 32 33 34 35 36 37 38 39 40 41 42 43 44 45 46 47 48 49 50
000
ASUS43 KOAX 251602
RWRNE

WEATHER ROUNDUP FOR NEBRASKA
NATIONAL WEATHER SERVICE OMAHA NE
1100 AM CDT SAT MAR 25 2017

NOTES: SATELLITE DATA IS BEING USED TO AUGMENT CLOUD COVER ABOVE
       12000 FEET.
       "FAIR" INDICATES FEW OR NO CLOUDS BELOW 12,000 FEET WITH NO
       SIGNIFICANT WEATHER AND/OR OBSTRUCTIONS TO VISIBILITY.

  * THESE STATIONS DO NOT REPORT WEATHER SUCH AS RAIN...SNOW OR FOG.

NEZ001>004-019>022-054>056-251700-
NEBRASKA PANHANDLE

CITY           SKY/WX    TMP DP  RH WIND       PRES   REMARKS
SCOTTSBLUFF    CLOUDY    50  33  52 SE8       30.01F
ALLIANCE       CLOUDY    53  33  46 S13       30.01F
CHADRON        CLOUDY    58  32  37 S14       29.95F
KIMBALL        CLOUDY    51  37  57 S12G17    30.04S
SIDNEY         SUNNY     51  34  52 SW12      30.04F
$$

NEZ057>060-069>072-079>082-251700-
SOUTHWEST NEBRASKA

CITY           SKY/WX    TMP DP  RH WIND       PRES   REMARKS
NORTH PLATTE   SUNNY     44  35  70 W8        30.05F
IMPERIAL       SUNNY     47  35  63 N3        30.06S
LEXINGTON      CLOUDY    38  36  92 N10       30.04F WCI  31
MCCOOK         SUNNY     46  38  73 NW12      30.04F
OGALLALA       SUNNY     45  37  72 CALM      30.06S
$$

NEZ005>010-023>029-035>040-094-251700-
NORTH CENTRAL NEBRASKA

CITY           SKY/WX    TMP DP  RH WIND       PRES   REMARKS
VALENTINE      SUNNY     36  32  85 SE6       30.04F WCI  31
AINSWORTH      FOG       32  32 100 S3        30.05F VSB 1
BROKEN BOW     CLOUDY    36  35  96 N12       30.04F WCI  28
O`NEILL        FOG       34  34 100 N7        30.08S VSB 1/4 WCI  28
ORD            CLOUDY    37  35  92 N13       30.05R FOG     WCI  29
THEDFORD       SUNNY     40  34  80 CALM      30.05F
$$

NEZ041-046>049-061>064-073>077-083>087-251700-
SOUTH CENTRAL NEBRASKA

CITY           SKY/WX    TMP DP  RH WIND       PRES   REMARKS
GRAND ISLAND   CLOUDY    36  36 100 N14       30.03R FOG     WCI  27
AURORA         CLOUDY    36  36 100 N18G24    30.01S FOG     WCI  25
HASTINGS       CLOUDY    37  35  92 N18       30.03R WCI  27
HEBRON         CLOUDY    40  37  88 N14       29.98S WCI  33
HOLDREGE       CLOUDY    38  37  94 N14       30.02S WCI  30
KEARNEY *      CLOUDY    37  34  87 N16       30.04S WCI  28
YORK           CLOUDY    37  37 100 N21       30.00F FOG     WCI  27
$$

NEZ011>018-030>034-042>045-251700-
NORTHEAST NEBRASKA

CITY           SKY/WX    TMP DP  RH WIND       PRES   REMARKS
NORFOLK        CLOUDY    36  34  92 N14       30.04S FOG     WCI  27
ALBION         CLOUDY    37  35  91 N10       30.03F FOG     WCI  30
BLAIR          LGT RAIN  40  39  96 N15G21    29.97R WCI  31
FREMONT        CLOUDY    39  38  96 N10       30.01S WCI  33
TEKAMAH        CLOUDY    40  37  89 N16       30.01S WCI  31
WAYNE          CLOUDY    37  37  99 N15       30.04F FOG     WCI  28
$$

NEZ050>053-065>068-078-088>093-251700-
SOUTHEAST NEBRASKA

CITY           SKY/WX    TMP DP  RH WIND       PRES   REMARKS
LINCOLN        LGT RAIN  41  39  93 N16       29.99S
OMAHA EPPLEY   LGT RAIN  42  37  82 N16       29.98S
BEATRICE       LGT RAIN  41  40  98 N15G24    29.96R
FALLS CITY     LGT RAIN  43  41  93 N10G18    29.91R
NEBRASKA CITY  DRIZZLE   40  40 100 N17       29.94F WCI  31
PLATTSMOUTH    LGT RAIN  41  37  87 N16       29.96S
$$

NEZ044-045-051>053-067-251700-
OMAHA AREA

CITY           SKY/WX    TMP DP  RH WIND       PRES   REMARKS
OMAHA EPPLEY   LGT RAIN  42  37  82 N16       29.98S
BLAIR          LGT RAIN  40  39  96 N15G21    29.97R WCI  31
FREMONT        CLOUDY    39  38  96 N10       30.01S WCI  33
MILLARD        LGT RAIN  42  41  95 N6        29.98S
OFFUTT AFB     LGT RAIN  41  37  87 NE13G21   29.97S
PLATTSMOUTH    LGT RAIN  41  37  87 N16       29.96S
WAHOO          CLOUDY    40  38  92 N18       29.99S WCI  31
$$



USA.gov is the U.S. government's official web portal to all federal, state and local government web resources and services.